| time (UTC) | temp F | wind direction | speed MPH | gust MPH | rain 1hr in | rain 24hr in | rain mn in | humidity % | barometer mb |
| 20260502202751 | 56 | 20 | 5.0 | 5.0 | 0.00 | 0.00 | 0.00 | ||
| 20260502201253 | 59 | 75 | 6.0 | 7.0 | 0.00 | 0.00 | 0.00 | ||
| 20260502195753 | 62 | 39 | 0.0 | 3.0 | 0.00 | 0.00 | 0.00 | ||
| 20260502194254 | 61 | 31 | 0.0 | 0.0 | 0.00 | 0.00 | 0.00 | ||
| 20260502192755 | 61 | 1 | 1.0 | 0.0 | 0.00 | 0.00 | 0.00 | ||
| 20260502191256 | 64 | 134 | 0.0 | 0.0 | 0.00 | 0.00 | 0.00 | ||
| 20260502185757 | 64 | 134 | 0.0 | 0.0 | 0.00 | 0.00 | 0.00 | ||
| 20260502184258 | 65 | 32 | 0.0 | 0.0 | 0.00 | 0.00 | 0.00 | ||
| 20260502182759 | 65 | 97 | 0.0 | 0.0 | 0.00 | 0.00 | 0.00 | ||
| 20260502181300 | 63 | 69 | 1.0 | 0.0 | 0.00 | 0.00 | 0.00 | ||
| 20260502164308 | 58 | 127 | 0.0 | 0.0 | 0.00 | 0.00 | 0.00 | ||
| 20260502162809 | 58 | 156 | 2.0 | 3.0 | 0.00 | 0.00 | 0.00 | ||
| 20260502161313 | 55 | 97 | 0.0 | 0.0 | 0.00 | 0.00 | 0.00 | ||
| 20260502151315 | 51 | 32 | 5.0 | 1.0 | 0.00 | 0.00 | 0.00 | ||
| 20260502122831 | 40 | 124 | 2.0 | 4.0 | 0.00 | 0.00 | 0.00 | ||
| 20260502121334 | 40 | 118 | 3.0 | 2.0 | 0.00 | 0.00 | 0.00 | ||
| 20260502115836 | 40 | 129 | 4.0 | 6.0 | 0.00 | 0.00 | 0.00 | ||
| 20260502114335 | 39 | 113 | 2.0 | 0.0 | 0.00 | 0.00 | 0.00 | ||
| 20260502111338 | 39 | 101 | 3.0 | 2.0 | 0.00 | 0.00 | 0.00 | ||
| 20260502105840 | 39 | 120 | 3.0 | 3.0 | 0.00 | 0.00 | 0.00 | ||
| 20260502104341 | 39 | 117 | 4.0 | 5.0 | 0.00 | 0.00 | 0.00 | ||
| 20260502102843 | 39 | 115 | 3.0 | 4.0 | 0.00 | 0.00 | 0.00 | ||
| 20260502101344 | 40 | 111 | 3.0 | 2.0 | 0.00 | 0.00 | 0.00 | ||
| 20260502091351 | 40 | 110 | 1.0 | 0.0 | 0.00 | 0.00 | 0.00 | ||
| 20260502071404 | 40 | 125 | 2.0 | 3.0 | 0.00 | 0.00 | 0.00 | ||
| 20260502065906 | 40 | 129 | 4.0 | 3.0 | 0.00 | 0.00 | 0.00 | ||
| 20260502064407 | 40 | 101 | 3.0 | 7.0 | 0.00 | 0.00 | 0.00 | ||
| 20260502062909 | 41 | 118 | 3.0 | 3.0 | 0.00 | 0.00 | 0.00 | ||
| 20260502061411 | 40 | 122 | 3.0 | 5.0 | 0.00 | 0.00 | 0.00 | ||
| 20260502055913 | 40 | 124 | 5.0 | 2.0 | 0.00 | 0.00 | 0.00 | ||
| 20260502054414 | 40 | 111 | 5.0 | 8.0 | 0.00 | 0.00 | 0.00 | ||
| 20260502052916 | 41 | 82 | 5.0 | 5.0 | 0.00 | 0.00 | 0.00 | ||
| 20260502051418 | 40 | 96 | 6.0 | 7.0 | 0.00 | 0.00 | 0.00 | ||
| 20260502044421 | 41 | 103 | 5.0 | 6.0 | 0.00 | 0.00 | 0.00 | ||
| 20260502042923 | 40 | 111 | 6.0 | 3.0 | 0.00 | 0.00 | 0.00 | ||
| 20260502041425 | 39 | 110 | 5.0 | 2.0 | 0.00 | 0.00 | 0.00 | ||
| 20260502035927 | 39 | 139 | 4.0 | 6.0 | 0.00 | 0.00 | 0.00 | ||
| 20260502034428 | 40 | 103 | 7.0 | 7.0 | 0.00 | 0.00 | 0.00 | ||
| 20260502032930 | 39 | 69 | 8.0 | 6.0 | 0.00 | 0.00 | 0.00 | ||
| 20260502031431 | 40 | 101 | 6.0 | 5.0 | 0.00 | 0.00 | 0.00 | ||
| 20260502025933 | 40 | 103 | 8.0 | 7.0 | 0.00 | 0.00 | 0.00 | ||
| 20260502022936 | 40 | 125 | 7.0 | 5.0 | 0.00 | 0.00 | 0.00 | ||
| 20260502021437 | 40 | 84 | 8.0 | 11.0 | 0.00 | 0.00 | 0.00 | ||
| 20260502015939 | 40 | 83 | 7.0 | 6.0 | 0.00 | 0.00 | 0.00 | ||
| 20260502014440 | 40 | 153 | 6.0 | 2.0 | 0.00 | 0.00 | 0.00 | ||
| 20260502012942 | 40 | 68 | 5.0 | 5.0 | 0.00 | 0.00 | 0.00 | ||
| 20260502011443 | 40 | 177 | 5.0 | 7.0 | 0.00 | 0.00 | 0.00 | ||
| 20260502005945 | 39 | 84 | 6.0 | 9.0 | 0.00 | 0.00 | 0.00 | ||
| 20260502004446 | 39 | 101 | 8.0 | 10.0 | 0.00 | 0.00 | 0.00 | ||
| 20260502002948 | 41 | 127 | 5.0 | 9.0 | 0.00 | 0.00 | 0.00 | ||
| 20260501234454 | 42 | 94 | 9.0 | 5.0 | 0.00 | 0.00 | 0.00 | ||
| 20260501232953 | 43 | 117 | 10.0 | 7.0 | 0.00 | 0.00 | 0.00 | ||
| 20260501225956 | 45 | 82 | 9.0 | 11.0 | 0.00 | 0.00 | 0.00 | ||
| 20260501224458 | 45 | 94 | 8.0 | 8.0 | 0.00 | 0.00 | 0.00 | ||
| 20260501222959 | 47 | 84 | 7.0 | 10.0 | 0.00 | 0.00 | 0.00 | ||
| 20260501221501 | 49 | 103 | 9.0 | 8.0 | 0.00 | 0.00 | 0.00 | ||
| 20260501214503 | 48 | 132 | 9.0 | 8.0 | 0.00 | 0.00 | 0.00 | ||
| 20260501213005 | 51 | 100 | 9.0 | 12.0 | 0.00 | 0.00 | 0.00 | ||
| 20260501204509 | 52 | 100 | 9.0 | 12.0 | 0.00 | 0.00 | 0.00 | ||
| 20260501203011 | 52 | 136 | 7.0 | 7.0 | 0.00 | 0.00 | 0.00 |